W9WKM Weather Reports


time (UTC)temp
F
wind
direction
speed
knots
gust
knots
rain 1hr
in
rain 24hr
in
rain mn
in
humidity
%
barometer
mb
20260504040039 56 213 0.0 0.9 0.00 0.13 0.13 72 1003.3
20260504034540 56 200 0.0 0.0 0.00 0.13 0.13 71 1003.5
20260504033028 57 200 0.0 0.0 0.00 0.13 0.13 69 1003.8
20260504031518 58 200 0.0 0.0 0.00 0.13 0.13 68 1003.8
20260504030013 58 224 0.0 0.9 0.00 0.13 0.13 67 1004.0
20260504024508 59 224 0.0 0.0 0.00 0.13 0.13 65 1003.9
20260504023002 60 224 0.0 0.0 0.00 0.13 0.13 63 1003.9
20260504021609 61 224 0.0 0.9 0.00 0.13 0.13 62 1003.8
20260504020051 61 218 0.0 1.7 0.00 0.13 0.13 60 1003.6
20260504014547 62 218 0.0 1.7 0.00 0.13 0.13 59 1003.4
20260504013042 63 218 0.0 2.6 0.00 0.13 0.13 58 1003.4
20260504011537 63 216 0.0 2.6 0.00 0.13 0.13 57 1003.3
20260504010033 64 219 0.0 3.5 0.00 0.13 0.13 55 1003.2
20260504004528 65 207 0.0 5.2 0.00 0.13 0.13 53 1003.2
20260504003020 66 221 0.0 5.2 0.00 0.13 0.13 52 1003.4
20260504001515 67 214 0.9 5.2 0.00 0.13 0.13 50 1003.4
20260504000010 68 250 0.9 3.5 0.00 0.13 0.13 48 1003.2
20260503234508 68 219 0.0 3.5 0.00 0.13 0.13 47 1003.2
20260503233059 69 217 0.0 3.5 0.00 0.13 0.13 46 1003.3
20260503231555 70 229 0.9 4.3 0.00 0.13 0.13 43 1003.3
20260503230047 71 227 1.7 5.2 0.00 0.13 0.13 43 1003.5
20260503224542 70 256 0.9 6.1 0.00 0.13 0.13 43 1003.6
20260503223038 70 218 0.9 8.7 0.00 0.13 0.13 44 1003.8
20260503221526 70 254 1.7 9.6 0.00 0.13 0.13 43 1003.8
20260503220023 70 232 1.7 6.1 0.00 0.13 0.13 42 1004.0
20260503214513 68 219 1.7 6.1 0.00 0.13 0.13 43 1004.1
20260503213005 68 214 1.7 6.1 0.00 0.13 0.13 43 1004.3
20260503211620 67 228 0.9 6.1 0.00 0.13 0.13 44 1004.7
20260503210049 67 195 0.9 11.3 0.00 0.13 0.13 44 1005.0
20260503204559 68 291 0.9 4.3 0.00 0.13 0.13 42 1005.3
20260503203039 69 215 1.7 7.8 0.00 0.13 0.13 40 1005.6
20260503201529 68 202 3.5 12.2 0.00 0.13 0.13 39 1005.7
20260503200021 67 292 0.9 7.8 0.00 0.13 0.13 42 1006.0
20260503194519 66 222 2.6 9.6 0.00 0.13 0.13 44 1006.2
20260503193006 65 210 1.7 13.9 0.00 0.13 0.13 49 1006.3
20260503191605 65 245 0.9 4.3 0.00 0.13 0.13 51 1006.6
20260503190053 63 150 0.9 6.1 0.00 0.13 0.13 57 1006.7
20260503184551 61 245 0.0 6.1 0.00 0.13 0.13 65 1007.1
20260503183038 58 150 1.7 7.8 0.00 0.13 0.13 67 1007.4
20260503181519 56 231 0.0 6.1 0.01 0.13 0.13 76 1007.6
20260503180024 54 229 0.0 2.6 0.02 0.13 0.13 83 1008.2
20260503174517 51 260 0.0 8.7 0.03 0.13 0.13 87 1008.4
20260503173131 49 217 0.0 3.5 0.05 0.13 0.13 88 1009.2
20260503171550 49 230 0.0 1.7 0.05 0.12 0.12 89 1009.8
20260503081543 45 226 0.0 0.9 0.00 0.00 0.00 65 1012.9
20260503071540 44 226 0.0 1.7 0.00 0.00 0.00 64 1013.0
20260503054520 45 213 0.0 1.7 0.00 0.00 0.00 61 1013.7
20260503053010 45 213 0.0 0.0 0.00 0.00 0.00 61 1013.9
20260503051506 46 213 0.0 0.0 0.00 0.00 0.00 60 1013.9
20260503050005 46 213 0.0 0.0 0.00 0.00 0.00 58 1014.1
20260503044504 46 213 0.0 0.0 0.00 0.00 0.00 58 1014.1
20260503043003 46 213 0.0 0.0 0.00 0.00 0.00 58 1014.1
20260503041502 47 176 0.0 0.0 0.00 0.00 0.00 58 1014.2